Regional Weather Roundup
Issued by NWS

Home | Current Version | Previous Version | Graphics & Text | Print | Product List | Glossary Off
Versions: 1 2 3 4 5 6 7 8 9 10 11 12 13 14 15 16 17 18 19 20 21 22 23 24 25 26 27 28 29 30 31 32 33 34 35 36 37 38 39 40 41 42 43 44 45 46 47 48 49 50

000
ASUS43 KMKX 200300
RWRWI

WISCONSIN REGIONAL WEATHER ROUNDUP
NATIONAL WEATHER SERVICE MILWAUKEE/SULLIVAN WI
1000 PM CDT TUE AUG 19 2014

NOTE: "FAIR" INDICATES FEW OR NO CLOUDS BELOW 12,000 FEET WITH NO
SIGNIFICANT WEATHER AND/OR OBSTRUCTIONS TO VISIBILITY.

WIZ001-002-006>008-014>016-023>028-200400-
NORTHWEST WISCONSIN

CITY           SKY/WX    TMP DP  RH WIND       PRES   REMARKS
SUPERIOR ARPT  CLOUDY    63  61  96 CALM      29.79S
ASHLAND        CLOUDY    60  58  92 E7        29.82R
HAYWARD        FOG       61  61 100 CALM      29.81R VSB 3/4
SIREN          MOCLDY    66  65  95 CALM      29.80R
RICE LAKE      CLOUDY    66  63  90 CALM      29.81S
LADYSMITH      MOCLDY    66  63  91 N3        29.81R
EAU CLAIRE     NOT AVBL
MENOMONIE      PTCLDY    69  65  87 CALM      29.79R
NEW RICHMOND   CLEAR     65  64  96 CALM      29.79R
OSCEOLA        CLOUDY    67  67 100 CALM      29.81R
$$

WIZ003>005-009-010-017-018-200400-
NORTH CENTRAL WISCONSIN

CITY           SKY/WX    TMP DP  RH WIND       PRES   REMARKS
WOODRUFF       CLOUDY    62  59  89 N5        29.79S
RHINELANDER    MOCLDY    59  57  93 CALM      29.79R
EAGLE RIVER    CLOUDY    60  59  97 NW3       29.78S
LAND O LAKES   CLOUDY    60  57  91 NW7       29.79S
PHILLIPS       CLOUDY    62  60  94 CALM      29.79S
TOMAHAWK       PTCLDY    59  57  95 CALM      29.79S
MEDFORD        MOCLDY    63  63  99 CALM      29.79R
MERRILL        MOCLDY    64  64 100 CALM      29.78R
$$

WIZ029-030-035-036-043>047-200400-
CENTRAL WISCONSIN

CITY           SKY/WX    TMP DP  RH WIND       PRES   REMARKS
WAUSAU         CLEAR     65  63  93 NW5       29.76R
MOSINEE        PTCLDY    63  63 100 W3        29.78R
MARSHFIELD     PTCLDY    64  62  93 CALM      29.78R
STEVENS POINT  MOCLDY    65  62  89 CALM      29.77S
WAUPACA        PTCLDY    68  64  86 CALM      29.76S
WAUTOMA        NOT AVBL
WISC RAPIDS    MOCLDY    66  63  90 NW3       29.78S
CAMP DOUGLAS   NOT AVBL
$$

WIZ011>013-019>022-031-037>040-048>050-200400-
NORTHEAST WISCONSIN

CITY           SKY/WX    TMP DP  RH WIND       PRES   REMARKS
ANTIGO         PTCLDY    60  60  97 NW6       29.76F
STURGEON BAY   MOCLDY    66  63  88 W5        29.72S
GREEN BAY      MOCLDY    65  64  97 CALM      29.73R
MANITOWOC      NOT AVBL
APPLETON       MOCLDY    66  63  88 W8        29.75S
CLINTONVILLE   PTCLDY    66  63  88 CALM      29.74R
OSHKOSH        PTCLDY    69  63  81 W5        29.75R
$$

WIZ032>034-041-042-053>061-200400-
SOUTHWEST WISCONSIN

CITY           SKY/WX    TMP DP  RH WIND       PRES   REMARKS
LA CROSSE      PTCLDY    71  66  84 CALM      29.77R
SPARTA         PTCLDY    64  62  94 CALM      29.78S
VIROQUA        FAIR      67  64  91 CALM      29.80R
BOSCOBEL       CLEAR     67  64  90 CALM      29.79R
PRAIRIE DU CHI CLEAR     69  64  83 CALM      29.78R
PLATTEVILLE    FAIR      69  64  84 W5        29.80R
$$

WIZ056-057-062-063-064-067-068-200400-
SOUTH CENTRAL WISCONSIN

CITY           SKY/WX    TMP DP  RH WIND       PRES   REMARKS
BARABOO/DELLS  CLEAR     67  61  82 CALM      29.78R
LONE ROCK      NOT AVBL
WATERTOWN      CLEAR     65  64  96 CALM      29.76R
MADISON        PTCLDY    67  63  87 CALM      29.77R
MIDDLETON      FAIR      67  67  98 CALM      29.78R
MONROE         CLEAR     72  63  73 W8        29.78R
JANESVILLE     PTCLDY    70  63  78 CALM      29.77R
$$

WIZ051-052-058>065-066-070>072-200400-
SOUTHEAST WISCONSIN

CITY           SKY/WX    TMP DP  RH WIND       PRES   REMARKS
MILWAUKEE      MOCLDY    72  65  78 CALM      29.76R
WAUKESHA       CLEAR     68  61  77 W3        29.78R
MILWAUKEE/TIMM CLEAR     72  61  68 CALM      29.76R
RACINE         CLEAR     70  67  90 W3        29.78R
BURLINGTON     CLEAR     65  63  93 NW3       29.77R
KENOSHA        CLEAR     66  64  93 W3        29.77R
FOND DU LAC    CLEAR     68  61  78 SW6       29.75S
SHEBOYGAN      CLEAR     65  61  87 SW3       29.74S
WEST BEND      CLEAR     68  61  77 CALM      29.76R
JUNEAU         CLEAR     67  38  35 CALM      29.77S
$$

LSZ147-162-200400-
LAKE SUPERIOR

STATION/POSITION TIME  TEMP    WIND        PRES    WAVE
                       AIR SEA DIR/SP/G            HT/PER
                 (UTC) (F)     (DEG/KT/KT) (MB)    (FT/S)
W MID LAKE BUOY  0150   56 56   10/ 10/ 12 1008.6R   2/ 4
DEVILS ISLAND    0200   59      70/ 10/ 11 1009.0R
PORT WING        0200   63     350/  3/  4 1008.8R
SAXON HARBOR     0200   60      70/  5/  8 1009.1R
$$

LMZ867-665-643>646-200400-
LAKE MICHIGAN

STATION/POSITION TIME  TEMP    WIND        PRES    WAVE
                       AIR SEA DIR/SP/G            HT/PER
                 (UTC) (F)     (DEG/KT/KT) (MB)    (FT/S)
N MID LAKE BUOY  0150   63 62  180/  8/  8 1004.6R   1/ 4
NORTHPORT PIER   0200   65     270/  4/  7 1005.4R
ALGOMA LAKESHORE 0222             CALM       N/A
KEWAUNEE LAKESHO 0200   68     260/  3/  5 1005.7R
SHEBOYGAN LAKESH 0200   70 65  220/  5/  5 1007.0R
ATWATER BUOY     0200   69      40/  2     1008.4R
MILWAUKEE LAKESH 0200   72      30/  1/  2   N/A
S MID LAKE BUOY  0150   68 67   40/  4/  4 1006.8R   1/ 5
KENOSHA   LAKESH 0200   72     210/  2/  4 1006.8R
$$

TC  - TEMPERATURE IN CELSIUS
VSB - VISIBILITY IN STATUTE MILES
WCI - WIND CHILL INDEX
HX  - HEAT INDEX




USA.gov is the U.S. government's official web portal to all federal, state and local government web resources and services.